Temp
53 53 53 53 53 53 53 52 52 50 48 47 45 44 44 45 46 46 47 48 52 55 57 57 56 56 56 56 56 58 58 58 57 58 55 54 54 53 53 52 51 51
52 52 52 52 52 53 53 53 52 50 49 48 46 45 45 45 45 46 46 46 48 54 57 57 56 57 56 55 56 55 56 58 56 57 55 54 53 53 53 53 51 51
49 51 51 51 52 52 53 53 53 51 50 49 47 46 44 45 44 45 45 46 46 50 55 56 55 55 56 56 56 55 54 56 55 55 55 54 53 52 53 52 51 51
48 50 51 52 52 52 53 52 52 52 50 48 47 46 45 44 44 44 44 43 45 48 53 55 55 55 55 56 55 54 57 56 57 56 54 54 53 52 52 52 50 50
47 50 51 52 52 52 52 52 51 51 50 49 49 47 45 43 42 43 42 43 44 47 51 54 55 55 56 55 55 54 56 57 56 55 54 52 52 52 51 51 50 49
42 46 49 50 51 51 51 50 51 51 50 49 48 47 45 43 42 41 42 42 43 45 48 53 54 55 55 55 54 53 53 56 56 55 54 52 51 51 51 50 49 48
36 37 40 46 48 50 50 50 51 51 50 49 48 46 45 43 41 41 42 42 42 43 46 51 54 54 55 54 53 53 53 55 55 54 53 52 51 49 49 49 48 49
34 36 37 40 43 46 48 49 50 50 50 49 47 47 46 44 42 41 41 41 41 42 44 49 53 54 55 54 52 52 53 55 55 53 52 52 50 49 48 49 48 49
33 33 35 37 38 39 43 47 49 50 50 48 47 47 46 45 43 41 41 41 41 41 43 47 52 53 53 54 52 53 53 53 54 53 52 50 49 49 49 49 48 48
32 32 33 34 36 37 39 42 47 48 48 48 48 46 45 45 44 42 41 40 40 40 42 45 50 52 53 54 53 53 53 52 53 53 53 52 51 50 49 49 49 48
30 31 31 32 35 37 39 42 44 46 47 47 47 45 45 44 44 43 41 40 39 40 41 43 49 52 53 53 54 54 54 53 53 53 53 52 52 51 49 49 49 48
29 30 30 31 32 33 35 37 41 44 46 46 46 45 44 44 43 42 40 39 39 39 40 41 46 51 53 52 53 54 54 53 52 52 53 53 52 52 51 51 50 49
28 30 30 30 31 32 33 34 35 36 37 42 45 44 43 42 42 40 40 39 39 39 39 40 43 49 51 52 52 53 53 53 51 51 52 53 53 52 52 52 51 50
26 29 30 31 32 32 32 32 33 35 36 39 41 42 42 41 40 40 39 39 38 38 39 39 41 46 51 51 51 52 52 52 52 51 51 52 53 53 52 51 51 50
26 27 30 30 30 30 31 31 31 33 35 36 38 40 41 41 40 40 38 38 38 38 38 39 40 45 50 50 50 51 52 51 51 51 51 51 52 52 52 51 51 51
25 26 27 28 28 29 29 30 31 31 31 33 35 38 40 40 40 39 38 38 37 38 38 39 40 45 46 47 49 51 52 51 51 50 50 51 51 51 51 51 50 51
22 23 25 25 27 27 27 28 28 28 29 30 32 35 37 38 39 38 38 38 37 37 37 38 39 43 45 47 48 48 51 51 49 49 48 50 50 49 49 49 50 50
20 21 22 23 24 25 26 26 27 27 27 27 29 31 34 37 37 38 38 38 37 37 37 37 39 41 45 46 47 48 48 50 50 47 47 49 49 49 49 49 49 48
20 19 20 22 23 25 25 26 26 26 26 26 27 30 33 34 36 37 37 37 37 36 36 37 38 41 44 46 47 47 47 49 49 49 46 46 48 48 47 48 48 46
19 18 19 20 23 24 25 25 25 25 26 27 28 30 32 34 35 36 36 36 36 36 36 37 38 40 44 45 46 46 47 48 49 47 47 48 48 48 47 47 47 46
17 18 19 20 21 23 24 24 25 25 26 26 28 29 31 32 34 35 35 36 36 36 36 36 38 40 43 45 46 46 47 48 49 47 46 46 48 48 47 48 47 47
17 17 18 18 18 20 23 24 25 25 25 27 28 30 33 34 35 36 35 35 36 36 36 36 38 40 43 44 45 46 46 46 46 45 44 45 45 45 45 47 47 46
17 16 16 16 17 17 20 23 24 25 26 27 27 29 32 33 34 35 36 36 36 35 35 36 37 40 42 44 45 46 45 46 45 44 44 43 44 44 45 45 45 45
15 14 14 14 15 16 18 22 25 26 26 28 28 29 32 34 35 36 36 36 36 35 36 36 37 40 42 43 44 45 45 45 44 44 43 42 42 43 43 44 43 42
13 14 13 14 14 15 17 20 23 25 27 29 29 30 33 36 36 36 36 36 36 36 36 36 37 39 42 43 44 45 44 45 45 44 42 42 42 41 42 43 42 41
13 12 13 13 13 14 16 18 23 26 27 27 28 30 32 35 36 36 35 36 36 36 36 37 37 39 40 43 43 44 44 44 45 44 41 41 42 42 41 41 41 41
MSLP
1004.47 1004.15 1003.71 1003.19 1002.75 1002.55 1002.55 1002.47 1002.27 1002.03 1002.11 1002.31 1002.47 1002.43 1002.39 1002.15 1002.03 1001.91 1001.71 1001.51 1000.43 999.03 998.03 998.15 998.47 998.75 999.11 999.75 1000.23 1000.67 1001.39 1001.83 1002.15 1002.59 1003.15 1003.79 1004.51 1004.91 1005.55 1006.35 1006.87 1007.15
1004.11 1003.79 1003.35 1002.95 1002.43 1002.19 1002.15 1002.11 1001.99 1001.71 1001.51 1001.67 1001.87 1001.99 1001.95 1001.87 1001.79 1001.67 1001.31 1001.07 1000.51 999.43 998.23 997.67 997.95 998.23 998.63 999.15 999.67 1000.31 1000.91 1001.39 1001.99 1002.31 1002.91 1003.39 1003.95 1004.51 1004.91 1005.59 1006.39 1006.95
1004.39 1003.35 1002.99 1002.55 1002.07 1001.71 1001.59 1001.59 1001.39 1001.35 1001.11 1001.07 1001.27 1001.47 1001.47 1001.39 1001.31 1001.35 1001.07 1000.79 1000.35 999.63 998.59 997.51 997.59 997.91 998.03 998.47 999.11 999.75 1000.35 1000.95 1001.51 1001.99 1002.63 1003.15 1003.63 1004.27 1004.75 1005.23 1005.91 1006.43
1004.23 1003.35 1002.59 1002.11 1001.71 1001.35 1001.15 1001.11 1000.95 1000.91 1000.79 1000.67 1000.75 1000.83 1000.91 1000.91 1000.91 1000.95 1000.91 1000.67 1000.23 999.55 998.79 997.79 997.19 997.51 997.71 998.07 998.55 999.19 999.75 1000.27 1000.55 1001.31 1002.15 1002.87 1003.31 1003.95 1004.59 1005.07 1005.51 1006.15
1003.79 1002.91 1002.19 1001.75 1001.35 1001.07 1000.83 1000.63 1000.51 1000.39 1000.47 1000.19 1000.19 1000.31 1000.47 1000.59 1000.51 1000.55 1000.63 1000.35 1000.03 999.43 998.71 997.83 996.83 996.91 997.35 997.71 998.23 998.79 999.15 999.75 1000.27 1000.67 1001.59 1002.43 1002.91 1003.55 1004.27 1004.79 1005.35 1005.87
1004.51 1003.59 1002.35 1001.55 1000.99 1000.75 1000.51 1000.31 1000.11 999.87 999.95 999.83 999.79 999.83 999.99 1000.19 1000.19 1000.23 1000.31 1000.19 999.83 999.43 998.67 997.55 996.55 996.35 996.75 997.15 997.71 998.27 998.79 999.23 999.75 1000.27 1001.11 1001.95 1002.75 1003.31 1003.83 1004.39 1004.83 1005.47
1005.51 1004.95 1003.83 1002.35 1001.27 1000.55 1000.15 999.83 999.67 999.55 999.47 999.47 999.43 999.47 999.63 999.79 999.79 999.83 999.87 999.87 999.75 999.35 998.67 997.63 996.51 995.79 996.23 996.71 997.23 997.75 998.31 998.71 999.35 999.83 1000.67 1001.55 1002.27 1003.15 1003.51 1003.95 1004.39 1004.91
1005.95 1005.27 1004.47 1003.35 1002.11 1000.99 999.99 999.55 999.27 999.11 999.03 999.15 999.07 998.99 999.15 999.35 999.39 999.35 999.39 999.47 999.43 999.07 998.47 997.55 996.55 995.63 995.63 996.19 996.75 997.31 997.75 998.19 998.83 999.51 1000.23 1001.03 1001.79 1002.43 1003.07 1003.43 1003.87 1004.51
1006.23 1005.51 1004.63 1003.67 1002.83 1001.95 1000.71 999.55 998.95 998.79 998.67 998.71 998.67 998.55 998.63 998.83 999.11 999.07 998.99 999.11 999.07 998.79 998.27 997.43 996.43 995.43 995.15 995.63 996.27 996.67 997.15 997.67 998.11 998.83 999.55 1000.39 1001.15 1001.51 1002.07 1002.71 1003.43 1004.27
1006.03 1005.55 1004.87 1003.95 1002.95 1002.07 1001.31 1000.31 999.11 998.59 998.35 998.23 998.15 998.19 998.19 998.31 998.63 998.91 998.83 998.87 998.87 998.59 998.03 997.19 996.31 995.51 994.75 994.95 995.47 996.03 996.59 997.07 997.67 998.35 998.91 999.55 1000.19 1000.91 1001.55 1002.15 1002.75 1003.83
1005.91 1005.39 1004.87 1004.11 1003.03 1002.07 1001.19 1000.31 999.31 998.55 998.15 997.95 997.79 997.75 997.75 997.91 998.07 998.39 998.59 998.55 998.55 998.31 997.83 997.03 996.07 995.31 994.71 994.55 994.87 995.39 995.95 996.55 997.19 997.87 998.43 998.95 999.55 1000.27 1000.87 1001.51 1002.11 1002.83
1005.59 1005.07 1004.59 1004.07 1003.47 1002.71 1001.87 1000.91 999.71 998.67 997.95 997.51 997.51 997.35 997.39 997.55 997.63 997.83 998.03 997.99 997.99 997.87 997.55 996.95 996.07 995.23 994.31 994.11 994.59 994.99 995.51 996.19 996.79 997.43 997.99 998.55 999.15 999.79 1000.43 1000.95 1001.47 1002.03
1005.39 1004.75 1004.23 1003.83 1003.39 1002.79 1002.23 1001.47 1000.71 1000.07 999.39 998.19 997.27 997.15 997.11 997.19 997.27 997.39 997.43 997.51 997.35 997.39 997.15 996.71 996.03 995.19 994.35 993.59 993.99 994.59 995.15 995.75 996.43 997.03 997.55 998.19 998.63 999.11 999.79 1000.35 1000.91 1001.55
1005.31 1004.67 1004.03 1003.47 1002.87 1002.59 1002.15 1001.71 1001.03 1000.19 999.43 998.71 997.75 997.15 996.95 996.91 996.95 997.03 996.99 996.99 996.91 996.91 996.67 996.43 995.99 995.11 994.19 993.59 993.59 994.19 994.75 995.27 995.87 996.47 997.15 997.71 998.19 998.71 999.27 999.91 1000.51 1001.15
1005.07 1004.31 1003.71 1003.31 1002.71 1002.31 1001.75 1001.31 1000.95 1000.27 999.51 998.87 998.19 997.31 996.91 996.79 996.71 996.75 996.71 996.59 996.51 996.51 996.35 996.07 995.67 994.87 993.83 993.19 993.23 993.79 994.31 994.91 995.39 996.07 996.55 997.27 997.83 998.35 998.95 999.59 1000.19 1000.67
1005.23 1004.47 1003.67 1003.11 1002.63 1002.03 1001.59 1001.07 1000.63 1000.27 999.71 998.95 998.23 997.43 996.79 996.55 996.51 996.43 996.43 996.31 996.23 996.11 996.07 995.79 995.27 994.39 993.55 992.91 992.31 992.91 993.67 994.35 994.99 995.59 996.11 996.67 997.31 997.87 998.55 999.19 999.71 1000.15
1005.51 1004.63 1003.83 1003.03 1002.43 1001.87 1001.35 1000.91 1000.51 1000.11 999.59 998.91 998.19 997.55 996.83 996.47 996.31 996.15 996.07 995.99 995.95 995.87 995.71 995.35 994.91 994.19 993.35 992.83 992.23 992.43 993.07 993.91 994.63 995.23 995.71 996.23 996.83 997.35 997.95 998.67 999.31 999.83
1005.39 1004.55 1003.67 1002.79 1002.19 1001.55 1001.03 1000.55 1000.15 999.79 999.35 998.79 998.31 997.59 996.83 996.39 995.99 995.79 995.67 995.59 995.51 995.47 995.39 994.99 994.51 993.95 993.31 992.67 992.19 992.23 992.67 993.31 994.11 994.95 995.55 995.95 996.39 996.91 997.43 998.11 998.79 999.55
1005.07 1004.35 1003.39 1002.39 1001.63 1001.11 1000.63 1000.11 999.71 999.27 998.91 998.55 997.95 997.23 996.67 996.07 995.55 995.43 995.23 995.15 995.11 994.99 994.87 994.55 994.15 993.51 992.95 992.39 991.87 991.87 992.35 992.95 993.75 994.47 995.15 995.59 996.07 996.67 997.23 997.71 998.39 999.19
1004.63 1003.95 1003.07 1002.03 1001.15 1000.55 1000.07 999.59 999.15 998.75 998.43 998.07 997.39 996.71 996.03 995.31 994.99 994.87 994.71 994.67 994.59 994.43 994.27 993.99 993.63 993.11 992.51 991.95 991.47 991.35 991.91 992.59 993.27 994.03 994.67 995.19 995.67 996.27 996.95 997.51 997.95 998.59
1004.23 1003.47 1002.55 1001.59 1000.87 1000.11 999.39 998.91 998.51 998.07 997.83 997.55 996.99 996.19 995.55 994.95 994.59 994.39 994.23 994.15 993.95 993.83 993.71 993.47 993.03 992.67 992.15 991.47 991.15 990.99 991.43 992.11 992.79 993.59 994.35 994.99 995.47 995.95 996.43 996.83 997.39 997.99
1003.83 1003.03 1002.23 1001.55 1001.07 1000.27 999.03 998.23 997.83 997.43 997.11 996.87 996.35 995.43 994.79 994.27 993.83 993.67 993.51 993.43 993.31 993.27 993.19 992.95 992.47 992.11 991.67 991.07 990.75 990.75 991.11 991.79 992.43 993.27 994.03 994.67 995.23 995.71 996.19 996.59 997.03 997.63
1003.51 1002.91 1002.15 1001.47 1000.87 1000.19 999.11 997.83 997.15 996.75 996.39 996.15 995.79 994.95 994.07 993.59 993.23 993.03 992.91 992.83 992.71 992.67 992.59 992.31 992.07 991.55 991.07 990.55 990.39 990.43 990.79 991.47 992.19 992.87 993.63 994.35 994.91 995.47 995.99 996.39 996.87 997.31
1003.27 1002.71 1001.95 1001.23 1000.51 999.75 998.79 997.67 996.71 996.15 995.75 995.39 994.99 994.39 993.39 992.67 992.51 992.35 992.23 992.19 992.15 992.03 991.99 991.87 991.51 991.03 990.51 990.07 989.87 990.11 990.43 991.11 991.91 992.67 993.39 994.07 994.75 995.35 995.83 996.31 996.63 996.99
1002.87 1002.23 1001.55 1000.79 1000.11 999.35 998.67 997.51 996.27 995.55 995.07 994.67 994.11 993.63 992.79 992.03 991.75 991.67 991.59 991.55 991.55 991.47 991.35 991.43 991.07 990.55 990.07 989.67 989.55 989.59 989.99 990.63 991.43 992.31 993.19 993.87 994.55 995.23 995.67 996.03 996.59 997.03
1002.31 1001.59 1000.87 1000.31 999.55 998.83 998.23 997.47 996.07 994.91 994.47 994.23 993.75 993.23 992.51 991.55 991.11 991.03 991.07 991.03 991.03 990.99 990.79 990.63 990.47 990.03 989.63 989.35 989.23 989.39 989.63 990.27 990.95 991.75 992.67 993.43 994.03 994.63 995.43 995.95 996.39 996.95
Wind_Speed
19 18 18 17 14 15 15 16 12 9 6 5 6 7 8 8 9 10 12 13 16 17 16 17 18 17 15 15 15 16 17 19 18 16 18 18 15 18 18 15 15 14
25 21 17 16 15 13 14 15 16 11 9 7 5 6 7 8 8 10 11 12 14 16 15 16 17 18 17 15 17 16 16 18 18 14 16 19 16 18 19 19 16 13
28 22 21 21 19 18 18 17 16 13 10 8 5 5 7 7 8 9 10 11 12 14 17 15 15 16 18 17 17 15 16 19 19 16 16 17 15 16 17 17 14 16
24 24 21 20 19 19 18 16 16 15 10 7 6 5 6 7 8 8 10 11 11 13 15 16 16 17 16 17 17 15 17 19 20 18 17 15 15 15 15 14 14 13
21 22 20 19 18 17 17 17 17 17 13 9 7 5 5 6 7 8 9 11 11 13 14 17 17 18 18 16 17 15 18 18 19 19 17 17 15 15 14 14 15 15
22 23 22 19 18 16 16 17 17 17 15 10 8 6 5 6 7 8 8 10 11 12 14 17 17 17 18 18 17 16 15 17 19 19 19 18 16 14 14 14 16 15
21 20 25 23 20 18 17 16 17 15 15 10 8 7 5 6 7 7 8 8 11 12 14 16 17 18 18 17 16 17 16 18 19 19 20 17 17 16 14 15 15 16
22 21 19 21 23 22 18 16 15 14 13 11 10 8 6 6 6 7 7 8 10 12 14 16 18 17 18 16 16 17 18 17 19 20 20 18 17 18 16 15 16 16
20 20 19 20 20 20 22 18 14 16 13 13 11 8 7 5 5 7 8 7 10 11 13 15 16 17 18 18 17 18 18 18 19 21 21 20 19 20 19 17 17 17
20 19 21 20 19 17 20 22 18 14 13 13 12 8 6 5 5 6 8 8 9 11 12 14 15 16 17 19 20 19 19 19 18 20 20 21 21 20 19 19 20 19
22 20 19 19 20 17 19 21 19 16 13 14 12 8 6 6 5 5 7 8 9 10 12 14 14 18 17 19 19 19 20 19 19 20 20 21 21 20 20 20 21 21
21 19 19 19 18 18 20 19 20 18 16 12 10 8 6 6 7 5 6 9 9 10 12 13 13 15 19 19 19 19 19 19 18 19 20 20 20 20 21 20 20 21
21 20 19 18 17 17 17 17 18 17 19 19 13 10 8 6 5 7 7 9 9 10 12 13 14 14 17 19 20 19 19 19 18 19 20 19 20 21 21 21 20 19
21 20 19 19 19 18 17 17 17 18 17 18 16 12 10 8 7 8 8 8 9 10 12 12 13 15 17 16 17 18 18 19 19 20 19 19 20 20 20 20 20 19
22 20 18 18 20 19 19 17 17 17 17 17 17 15 10 7 7 8 8 10 10 10 12 12 13 14 15 18 18 19 18 19 20 20 20 20 19 20 19 19 18 18
23 22 21 20 19 19 19 18 17 16 16 18 17 15 11 7 8 8 9 10 11 11 11 12 12 13 16 24 24 20 20 17 17 19 20 19 19 19 19 19 19 18
22 22 22 22 20 19 17 18 18 16 16 17 17 17 15 12 10 11 10 10 11 11 12 13 13 14 20 24 26 27 21 18 17 17 18 19 18 19 19 19 17 17
21 22 22 22 21 19 17 17 17 17 17 17 17 18 17 13 13 13 12 11 10 11 12 13 14 19 22 25 27 27 24 19 17 15 16 17 17 18 17 17 18 16
21 21 22 20 20 19 17 16 17 17 17 17 18 17 16 16 15 13 13 12 11 12 12 13 14 20 23 26 29 29 28 23 15 17 16 16 17 17 17 17 16 15
21 20 21 21 18 18 17 17 16 18 17 16 15 16 16 16 14 13 12 12 12 12 12 13 14 20 24 26 30 31 30 25 17 17 17 18 18 17 15 16 17 16
21 20 21 19 19 19 18 17 15 16 17 15 15 16 16 15 14 14 13 13 12 11 11 13 14 23 24 26 29 31 31 26 17 16 15 15 16 17 17 18 18 17
20 20 20 20 19 20 20 18 16 15 16 16 16 15 15 14 13 12 12 12 11 11 12 13 15 24 24 26 30 30 31 20 16 16 15 15 15 15 15 15 16 16
20 20 21 21 20 19 21 19 16 16 16 14 15 17 15 14 14 12 11 11 12 11 12 13 14 20 23 28 29 31 27 17 15 14 14 15 14 13 14 13 13 16
20 20 21 21 20 19 19 19 17 15 14 13 15 16 16 14 12 12 11 10 11 12 12 12 14 18 22 27 31 31 26 18 14 14 13 14 13 13 11 11 13 20
20 20 20 20 20 20 19 20 19 16 13 13 13 14 15 11 10 9 8 8 9 11 14 15 14 17 21 27 30 31 26 17 15 13 14 13 13 12 11 11 12 14
18 20 20 20 20 20 19 18 17 14 13 13 14 14 15 14 9 8 8 8 8 9 11 13 14 14 16 27 28 29 29 18 14 15 15 15 14 14 12 10 11 11
Wind_Direction
286 284 279 277 273 269 271 274 269 264 248 238 259 277 282 290 297 294 291 294 282 236 202 192 185 186 180 180 181 180 183 185 182 180 178 178 181 175 174 171 172 170
291 282 278 276 271 266 267 269 272 263 259 241 232 258 270 281 286 288 292 297 296 262 220 197 187 186 184 179 180 181 183 184 183 180 177 177 178 180 177 172 172 165
290 286 281 277 274 271 268 271 270 264 257 252 224 240 262 275 287 289 292 295 295 281 236 205 189 190 184 179 179 181 182 183 182 177 177 178 175 178 179 171 168 168
283 287 282 279 276 273 272 269 267 267 255 248 225 225 255 277 284 289 292 292 292 286 257 219 190 187 185 182 181 184 184 185 181 173 177 178 176 176 176 172 169 165
280 286 283 278 277 275 273 269 268 267 257 251 246 218 252 267 279 289 290 290 290 289 267 229 197 187 188 184 181 185 184 182 180 172 175 179 180 174 175 171 168 167
316 310 301 288 278 276 273 270 268 267 259 252 246 238 231 256 272 282 285 289 292 291 283 237 204 189 187 186 183 187 183 182 180 175 175 179 178 177 172 175 170 169
315 315 309 306 299 283 276 271 269 266 262 252 252 243 214 242 264 275 281 285 287 289 287 265 218 191 186 186 184 184 182 182 181 177 176 179 175 177 175 174 174 172
308 310 304 303 307 302 285 274 267 264 260 252 246 240 211 227 256 272 278 282 285 287 287 273 234 200 186 184 183 183 182 182 180 179 179 178 177 176 177 177 176 176
304 303 304 302 303 305 303 289 274 271 264 259 250 238 231 214 231 264 278 281 282 284 286 282 247 207 188 185 185 185 181 182 181 180 179 179 181 180 178 177 175 180
300 301 304 303 299 297 296 300 291 278 275 269 256 235 241 234 206 242 277 278 279 281 283 282 258 223 192 187 186 184 183 183 182 182 182 182 182 181 180 177 178 182
299 299 299 299 300 300 298 295 293 286 277 270 261 236 232 245 240 224 267 274 277 281 285 284 267 225 200 190 187 185 184 184 183 183 184 184 183 182 180 182 181 182
298 297 297 297 298 301 304 305 302 303 295 273 262 240 235 236 252 254 266 276 277 281 282 283 280 243 205 189 187 186 184 183 182 184 185 184 183 182 183 184 184 184
300 298 297 296 297 296 296 298 302 305 306 299 278 256 249 242 240 259 266 274 279 283 282 284 285 262 222 192 184 184 183 183 182 184 184 184 184 183 184 186 187 185
299 299 298 296 294 293 292 293 293 294 292 293 295 277 257 249 255 263 271 274 279 280 282 285 284 270 228 200 183 182 184 184 182 183 183 185 184 184 184 186 186 187
300 299 296 296 297 294 291 289 291 292 291 287 289 284 264 254 260 268 275 279 280 279 285 286 282 272 231 197 184 184 186 185 183 182 182 183 185 185 185 186 187 187
300 298 296 295 294 292 289 291 289 290 292 289 283 284 278 263 268 268 270 274 281 284 285 285 282 276 237 207 184 182 185 184 184 183 182 182 184 185 184 185 187 188
298 296 294 292 290 288 289 288 287 285 284 284 283 278 278 278 272 272 270 271 273 279 283 283 282 276 245 210 191 182 181 182 184 184 182 181 184 184 184 184 186 188
295 294 291 286 285 285 285 284 282 282 281 280 280 276 272 273 272 268 269 270 270 271 273 276 280 277 255 212 194 184 181 180 182 181 182 183 185 185 185 182 184 183
294 295 293 288 283 282 281 281 281 279 278 278 275 272 269 264 262 264 264 265 265 267 270 273 278 276 263 214 194 185 182 179 181 179 180 186 185 184 184 183 182 180
294 292 290 288 284 278 276 274 276 276 275 276 277 274 266 259 255 257 260 260 261 263 268 273 273 277 263 217 196 184 181 179 178 180 183 186 185 182 182 183 182 180
295 293 291 293 295 287 273 268 266 273 272 275 275 268 262 258 256 255 255 255 257 259 265 269 273 273 261 214 197 185 179 179 178 179 181 184 186 184 184 183 182 182
294 294 294 294 295 295 285 268 268 270 272 273 271 264 258 257 251 246 248 252 256 260 263 266 270 270 254 212 194 184 178 180 177 178 178 182 185 186 184 184 182 179
296 295 294 292 291 289 288 280 272 273 272 268 268 273 262 249 248 244 246 250 253 252 256 262 267 266 247 206 193 185 177 181 176 176 178 180 184 184 185 182 182 179
294 291 290 289 288 285 284 285 278 274 274 264 264 267 261 245 242 242 240 241 245 253 252 260 263 260 236 205 189 184 178 178 174 175 178 179 180 181 179 181 184 183
291 289 287 286 285 284 285 283 273 264 264 266 264 269 273 257 236 237 239 240 245 252 257 254 256 255 231 201 189 182 178 176 173 171 174 178 176 179 182 180 182 183
289 284 281 281 280 279 278 279 280 270 260 263 267 264 261 252 234 233 242 251 250 256 258 249 246 244 225 203 187 183 179 174 171 171 175 176 178 177 177 182 180 181